When you browse on this site, cookies collect data to enhance your experience and personalize the content and advertising you see.
Visit our Privacy Policy to learn more. By continuing to use the site, you agree to this use of cookies and data.
  • In France
  • List of Countries
  • For 7 days
  • Water Temperature
  • Weather Map
  • Weather Widgets
  • user-avatar
    Login

    Hourly Weather Quebec

    Today, 25 May, Monday

    Time Temperature Precipitation Wind Pressure Humidity
    00:00 +8°C° 0.2 mm 2 mps 696 mmHg 91%
    01:00 +8°C° 0 mm 2 mps 696 mmHg 92%
    02:00 +8°C° 0 mm 2 mps 696 mmHg 93%
    03:00 +7°C° 0 mm 3 mps 696 mmHg 94%
    04:00 +7°C° 0 mm 3 mps 696 mmHg 95%
    05:00 +8°C° 0 mm 3 mps 695 mmHg 96%
    06:00 +9°C° 0 mm 3 mps 695 mmHg 96%
    07:00 +10°C° 0 mm 3 mps 695 mmHg 96%
    08:00 +11°C° 0.2 mm 4 mps 695 mmHg 96%
    09:00 +11°C° 0.2 mm 4 mps 695 mmHg 96%
    10:00 +11°C° 0.2 mm 4 mps 695 mmHg 95%
    11:00 +12°C° 0.1 mm 4 mps 695 mmHg 93%
    12:00 +14°C° 0.1 mm 5 mps 695 mmHg 91%
    13:00 +15°C° 0.1 mm 5 mps 696 mmHg 89%
    14:00 +16°C° 0.3 mm 5 mps 695 mmHg 86%
    15:00 +17°C° 0.3 mm 5 mps 695 mmHg 83%
    16:00 +19°C° 0.3 mm 4 mps 695 mmHg 81%
    17:00 +17°C° 0.9 mm 4 mps 695 mmHg 85%
    18:00 +16°C° 0.9 mm 3 mps 695 mmHg 89%
    19:00 +14°C° 0.9 mm 2 mps 696 mmHg 94%
    20:00 +13°C° 0.2 mm 1 mps 695 mmHg 95%
    21:00 +12°C° 0.2 mm 1 mps 695 mmHg 96%
    22:00 +10°C° 0.2 mm 0 mps 695 mmHg 97%
    23:00 +11°C° 0.2 mm 1 mps 695 mmHg 97%

    Tomorrow, 26 May, Tuesday

    Time Temperature Precipitation Wind Pressure Humidity
    00:00 +12°C° 0.2 mm 2 mps 696 mmHg 97%
    01:00 +11°C° 0.2 mm 3 mps 696 mmHg 97%
    02:00 +11°C° 0.1 mm 3 mps 696 mmHg 97%
    03:00 +11°C° 0.1 mm 3 mps 696 mmHg 97%
    04:00 +10°C° 0.1 mm 3 mps 697 mmHg 97%
    05:00 +10°C° 0 mm 3 mps 697 mmHg 93%
    06:00 +10°C° 0 mm 3 mps 698 mmHg 88%
    07:00 +10°C° 0 mm 3 mps 698 mmHg 83%
    08:00 +11°C° 0 mm 4 mps 699 mmHg 78%
    09:00 +11°C° 0 mm 4 mps 699 mmHg 73%
    10:00 +12°C° 0 mm 4 mps 699 mmHg 68%
    11:00 +13°C° 0 mm 4 mps 700 mmHg 58%
    12:00 +14°C° 0 mm 5 mps 700 mmHg 48%
    13:00 +15°C° 0 mm 5 mps 701 mmHg 38%
    14:00 +15°C° 0 mm 4 mps 701 mmHg 38%
    15:00 +14°C° 0 mm 4 mps 701 mmHg 38%
    16:00 +14°C° 0 mm 4 mps 701 mmHg 39%
    17:00 +13°C° 0 mm 3 mps 701 mmHg 45%
    18:00 +13°C° 0 mm 2 mps 701 mmHg 51%
    19:00 +10°C° 0 mm 2 mps 701 mmHg 57%
    20:00 +9°C° 0 mm 2 mps 701 mmHg 63%
    21:00 +8°C° 0 mm 2 mps 701 mmHg 69%
    22:00 +6°C° 0 mm 2 mps 701 mmHg 75%
    23:00 +6°C° 0 mm 2 mps 701 mmHg 75%

    Day after tomorrow, 27 May, Wednesday

    Time Temperature Precipitation Wind Pressure Humidity
    00:00 +6°C° 0 mm 2 mps 701 mmHg 75%
    01:00 +5°C° 0 mm 3 mps 701 mmHg 75%
    02:00 +5°C° 0 mm 3 mps 700 mmHg 74%
    03:00 +5°C° 0 mm 3 mps 700 mmHg 73%
    04:00 +5°C° 0 mm 3 mps 700 mmHg 72%
    05:00 +6°C° 0 mm 4 mps 699 mmHg 71%
    06:00 +6°C° 0 mm 4 mps 699 mmHg 71%
    07:00 +7°C° 0 mm 5 mps 698 mmHg 70%
    08:00 +8°C° 0.5 mm 6 mps 698 mmHg 73%
    09:00 +9°C° 0.5 mm 6 mps 697 mmHg 76%
    10:00 +11°C° 0.5 mm 6 mps 696 mmHg 79%
    11:00 +15°C° 0.2 mm 7 mps 696 mmHg 75%
    12:00 +18°C° 0.2 mm 8 mps 696 mmHg 71%
    13:00 +23°C° 0.2 mm 8 mps 695 mmHg 67%
    14:00 +21°C° 1.1 mm 7 mps 695 mmHg 75%
    15:00 +20°C° 1.1 mm 6 mps 694 mmHg 83%
    16:00 +18°C° 1.1 mm 4 mps 693 mmHg 91%
    17:00 +18°C° 1 mm 4 mps 693 mmHg 92%
    18:00 +18°C° 1 mm 4 mps 693 mmHg 93%
    19:00 +17°C° 1 mm 4 mps 693 mmHg 94%
    20:00 +16°C° 2.7 mm 5 mps 693 mmHg 95%
    21:00 +16°C° 2.7 mm 5 mps 693 mmHg 95%
    22:00 +15°C° 2.7 mm 6 mps 693 mmHg 96%
    23:00 +15°C° 1.5 mm 6 mps 693 mmHg 96%

    28 May, Thursday

    Time Temperature Precipitation Wind Pressure Humidity
    00:00 +15°C° 1.5 mm 5 mps 693 mmHg 96%
    01:00 +15°C° 1.5 mm 5 mps 693 mmHg 96%
    02:00 +15°C° 0.5 mm 4 mps 693 mmHg 96%
    03:00 +14°C° 0.5 mm 3 mps 692 mmHg 96%
    04:00 +13°C° 0.5 mm 3 mps 692 mmHg 96%
    05:00 +14°C° 0 mm 3 mps 693 mmHg 91%
    06:00 +15°C° 0 mm 4 mps 693 mmHg 86%
    07:00 +17°C° 0 mm 4 mps 693 mmHg 81%
    08:00 +19°C° 0 mm 5 mps 693 mmHg 71%
    09:00 +20°C° 0 mm 6 mps 694 mmHg 61%
    10:00 +22°C° 0 mm 7 mps 694 mmHg 51%
    11:00 +22°C° 0.2 mm 7 mps 694 mmHg 52%
    12:00 +22°C° 0.2 mm 7 mps 693 mmHg 53%
    13:00 +22°C° 0.2 mm 7 mps 693 mmHg 54%
    14:00 +22°C° 0 mm 7 mps 693 mmHg 52%
    15:00 +22°C° 0 mm 6 mps 693 mmHg 50%
    16:00 +22°C° 0 mm 6 mps 693 mmHg 49%
    17:00 +21°C° 0 mm 5 mps 693 mmHg 53%
    18:00 +20°C° 0 mm 3 mps 693 mmHg 57%
    19:00 +19°C° 0 mm 2 mps 693 mmHg 62%
    20:00 +17°C° 0 mm 2 mps 693 mmHg 66%
    21:00 +16°C° 0 mm 1 mps 693 mmHg 70%
    22:00 +14°C° 0 mm 1 mps 692 mmHg 74%
    23:00 +15°C° 0 mm 1 mps 692 mmHg 73%

    29 May, Friday

    Time Temperature Precipitation Wind Pressure Humidity
    00:00 +15°C° 0 mm 1 mps 692 mmHg 72%
    01:00 +15°C° 0 mm 1 mps 691 mmHg 71%
    02:00 +15°C° 0.1 mm 2 mps 690 mmHg 74%
    03:00 +14°C° 0.1 mm 3 mps 690 mmHg 76%
    04:00 +13°C° 0.1 mm 4 mps 689 mmHg 79%
    05:00 +13°C° 0.7 mm 4 mps 689 mmHg 83%
    06:00 +13°C° 0.7 mm 5 mps 688 mmHg 88%
    07:00 +13°C° 0.7 mm 5 mps 688 mmHg 92%
    08:00 +13°C° 0.5 mm 5 mps 688 mmHg 87%
    09:00 +13°C° 0.5 mm 5 mps 688 mmHg 82%
    10:00 +13°C° 0.5 mm 5 mps 688 mmHg 78%
    11:00 +12°C° 0.1 mm 5 mps 688 mmHg 79%
    12:00 +10°C° 0.1 mm 6 mps 688 mmHg 80%
    13:00 +9°C° 0.1 mm 7 mps 689 mmHg 81%
    14:00 +9°C° 0 mm 7 mps 689 mmHg 75%
    15:00 +10°C° 0 mm 7 mps 690 mmHg 70%
    16:00 +10°C° 0 mm 7 mps 690 mmHg 64%
    17:00 +9°C° 0 mm 7 mps 691 mmHg 66%
    18:00 +8°C° 0 mm 6 mps 691 mmHg 68%
    19:00 +7°C° 0 mm 5 mps 691 mmHg 71%
    20:00 +6°C° 0 mm 4 mps 691 mmHg 76%
    21:00 +5°C° 0 mm 3 mps 691 mmHg 82%
    22:00 +4°C° 0 mm 2 mps 691 mmHg 87%
    23:00 +4°C° 0 mm 2 mps 691 mmHg 89%

    30 May, Saturday

    Time Temperature Precipitation Wind Pressure Humidity
    00:00 +4°C° 0 mm 1 mps 691 mmHg 90%
    01:00 +4°C° 0 mm 1 mps 691 mmHg 91%
    02:00 +3°C° 0 mm 1 mps 691 mmHg 91%
    03:00 +3°C° 0 mm 1 mps 691 mmHg 92%
    04:00 +3°C° 0 mm 1 mps 691 mmHg 92%
    05:00 +4°C° 0 mm 1 mps 692 mmHg 85%
    06:00 +5°C° 0 mm 1 mps 692 mmHg 78%
    07:00 +5°C° 0 mm 1 mps 692 mmHg 71%
    08:00 +5°C° 0 mm 2 mps 692 mmHg 68%
    09:00 +6°C° 0 mm 2 mps 692 mmHg 66%
    10:00 +7°C° 0 mm 2 mps 692 mmHg 63%
    11:00 +5°C° 0.3 mm 3 mps 692 mmHg 71%
    12:00 +4°C° 0.3 mm 3 mps 692 mmHg 80%
    13:00 +3°C° 0.3 mm 4 mps 691 mmHg 88%
    14:00 +1°C° 1.1 mm 5 mps 691 mmHg 91%
    15:00 -2°C° 1.1 mm 6 mps 691 mmHg 93%
    16:00 -3°C° 1.1 mm 7 mps 691 mmHg 96%
    17:00 -3°C° 0.9 mm 7 mps 692 mmHg 96%
    18:00 -3°C° 0.9 mm 7 mps 692 mmHg 95%
    19:00 -4°C° 0.9 mm 7 mps 692 mmHg 95%
    20:00 -4°C° 0.3 mm 7 mps 693 mmHg 94%
    21:00 -6°C° 0.3 mm 7 mps 693 mmHg 93%
    22:00 -5°C° 0.3 mm 6 mps 693 mmHg 92%
    23:00 -6°C° 0.1 mm 6 mps 693 mmHg 92%
    Show more